[sarex] 2 Line ISS Keps 10-16

Dave Larsen PhD doc at volcano.net
Sun Oct 15 19:59:35 PDT 2006


ISS
1 25544U 98067A   06288.96394316  .00009710  00000-0  62451-4 0  8678
2 25544 051.6353 285.2224 0013264 100.8545 348.1702 15.76908098452211


More information about the SAREX mailing list